Location: Beetenbrück
(52.8113°N, 9.5946°E)
Time: 16:26:41
(UTC+00:00)

Okean O Rocket - Pass Details

Date: 14 April 2026
Orbit: 612 x 635 km, 98.0° (Epoch: 9 May)

Event Time Altitude Azimuth Distance (km) Brightness Sun altitude
Exits shadow 21:39:32 - 237° (WSW) 2,243 4.4 -23.8°
Reaches altitude 10° 21:40:45 10° 250° (WSW) 2,002 4.2 -23.9°
Maximum altitude 21:42:30 12° 274° (W) 1,859 4.4 -24.0°
Drops below altitude 10° 21:44:16 10° 298° (WNW) 2,003 4.9 -24.1°
Sets 21:47:50 0° 329° (NNW) 2,911 6.4 -24.4°
